Location: Middle Street
(51.7167°N, 0.0333°E)
Time: 02:13:22
(UTC+00:00)

Cosmos 2026 Rocket - Pass Details

Date: 20 January 2021
Orbit: 940 x 1000 km, 82.9° (Epoch: 28 February)

Event Time Altitude Azimuth Distance (km) Brightness Sun altitude
Rises 19:32:43 0° 192° (SSW) 3,604 7.1 -28.1°
Reaches altitude 10° 19:35:11 10° 194° (SSW) 2,669 6.4 -28.5°
Maximum altitude 19:41:18 78° 280° (W) 987 4.0 -29.4°
Drops below altitude 10° 19:47:33 10° 8° (N) 2,727 6.3 -30.4°
Sets 19:50:06 0° 10° (N) 3,687 7.0 -30.8°
